Location: Unspecified
(0.0000°N, 0.0000°E)
Time: 13:25:31
(UTC+00:00)

Vanguard 2 Rocket - Visible Passes

Search period start: 07 October 2022 00:00
Search period end: 17 October 2022 00:00
Orbit: 553 x 3323 km, 32.9° (Epoch: 06 October)

Date Brightness Start Highest point End Pass type
(mag) Time Alt. Az. Time Alt. Az. Time Alt. Az.
07 Oct 7.7 04:51:51 10° NNW 04:55:51 27° NNE 04:59:15 10° E visible
07 Oct 9.9 18:20:30 10° WSW 18:39:53 69° NW 18:58:23 10° NE visible
07 Oct 10.2 20:43:10 10° W 20:59:11 29° NNW 21:05:20 24° N visible
08 Oct 8.5 03:54:38 15° N 03:55:39 16° NNE 03:58:25 10° ENE visible
08 Oct 10.2 19:38:01 10° W 19:56:11 40° NNW 20:08:51 18° NNE visible
08 Oct 10.6 22:07:44 10° NW 22:14:38 15° NNW 22:14:38 15° NNW visible
09 Oct 6.1 05:04:27 10° NW 05:09:11 72° NNE 05:13:05 10° ESE visible
09 Oct 10.1 18:34:22 10° WSW 18:53:01 53° NW 19:10:59 10° NE visible
09 Oct 10.4 20:59:41 10° WNW 21:13:16 22° NNW 21:18:05 20° N visible
10 Oct 7.4 04:07:49 29° N 04:09:19 35° NNE 04:13:09 10° E visible
10 Oct 10.4 19:53:28 10° W 20:09:55 30° NNW 20:21:29 16° NNE visible
10 Oct 10.8 22:25:40 10° NW 22:27:14 11° NNW 22:27:14 11° NNW visible
11 Oct 8.9 03:11:30 16° ENE 03:11:30 16° ENE 03:12:50 10° ENE visible
11 Oct 6.5 05:17:50 10° WNW 05:22:21 42° SW 05:26:06 10° SE visible
11 Oct 10.4 18:48:55 10° W 19:06:29 40° NNW 19:23:29 10° NNE visible
11 Oct 10.5 21:17:01 10° NW 21:27:57 17° NNW 21:30:34 17° N visible
12 Oct 6.2 04:20:57 41° NW 04:22:41 83° NNE 04:26:48 10° ESE visible
12 Oct 10.3 17:45:50 10° WSW 18:03:05 52° NNW 18:22:10 10° NE visible
12 Oct 10.5 20:09:49 10° WNW 20:24:14 23° NNW 20:33:50 15° NNE visible
13 Oct 8.1 03:24:35 31° ENE 03:24:35 31° ENE 03:27:09 10° ESE visible
13 Oct 10.6 19:04:18 10° W 19:20:26 31° NNW 19:35:59 10° NNE visible
13 Oct 10.6 21:34:17 10° NW 21:42:47 15° NNW 21:42:47 15° NNW visible
14 Oct 6.8 04:33:59 30° W 04:35:47 42° SW 04:39:45 10° SSE visible
14 Oct 10.5 18:00:23 10° W 18:16:45 39° NNW 18:34:38 10° NE visible
14 Oct 10.5 20:26:50 10° NW 20:39:09 19° NNW 20:45:57 15° N visible
15 Oct 7.3 03:37:32 48° SE 03:37:32 48° SE 03:40:39 10° SE visible
15 Oct 10.6 19:20:30 10° WNW 19:34:58 24° NNW 19:48:44 10° NNE visible
15 Oct 10.7 21:50:08 10° NNW 21:54:48 13° NNW 21:54:48 13° NNW visible
16 Oct 9.5 02:41:04 10° ESE 02:41:04 10° ESE 02:41:09 10° ESE visible
16 Oct 7.9 04:46:51 16° WSW 04:48:42 19° SW 04:51:54 10° S visible
16 Oct 10.7 18:15:43 10° WNW 18:30:55 30° NNW 18:47:10 10° NNE visible
16 Oct 10.6 20:43:40 10° NW 20:54:32 17° N 20:57:53 16° N visible
